Flag for U.S.A. Weather past 2 weeks in Little Rock, Arkansas, U.S.A.

Now
59 °F

Light rain. Fog.


Feels Like: 57 °F
Forecast: 66 / 85 °F
Wind: 10 mph from Southeast

Location: Adams Field

Current Time: Apr 24, 2015 at 9:11:55 PM

Latest Report: Apr 24, 2015 at 7:53 PM


Visibility: 3 mi

Pressure: 29.83 "Hg

Humidity: 87%

Dew point: 55 °F

Location of Little RockLocation

Historic Weather in Little Rock — Graph

°F

Little Rock temperature yesterday

Maximum temperature yesterday: 63 °F (at 3:53 PM)
Minimum temperature yesterday: 53 °F (at 6:53 AM)
Average temperature yesterday: 58 °F

Past Weeks' High & Low Weather Summary

 TemperatureHumidityPressure
High82 °F (Apr 12, 3:53 PM)94% (Apr 16, 8:01 AM)30.24 "Hg (Apr 16, 8:01 AM)
Low46 °F (Apr 21, 4:53 AM)23% (Apr 20, 4:53 PM)29.57 "Hg (Apr 19, 4:53 PM)
Average64 °F69%29.98 "Hg
* Reported Apr 9 6:53 PM — Apr 24 6:00 PM, Little Rock, Weather by CustomWeather, © 2015

Note: Actual official high and low records may vary slightly from our data, if they occured in-between our weather recording intervals... More about our weather records

Advertising

Little Rock weather history for previous 24 hours

 ConditionsComfort  
Time TempWeatherWind HumidityBarometerVisibility
6:00 PM
Fri, Apr 24
59 °FRain. Fog.6 mph88%29.86 "Hg2 mi
4:58 PM61 °FLight rain. Fog.5 mph83%29.89 "Hg3 mi
3:53 PM59 °FLight rain. Fog.6 mph90%29.87 "Hg3 mi
2:53 PM59 °FLight rain. Mostly cloudy.5 mph90%29.92 "Hg3 mi
1:53 PM59 °FLight rain. Mostly cloudy.5 mph87%29.92 "Hg7 mi
12:53 PM58 °FLight rain. Fog.5 mph87%29.96 "Hg5 mi
11:53 AM58 °FLight rain. Cloudy.10 mph84%30.00 "Hg7 mi
10:53 AM57 °FLight rain. Mostly cloudy.8 mph83%29.97 "Hg10 mi
9:53 AM57 °FThunderstorms. Fog.5 mph78%30.02 "Hg3 mi
8:53 AM58 °FOvercast.7 mph70%30.00 "Hg10 mi
7:53 AM57 °FOvercast.5 mph72%30.01 "Hg10 mi
6:53 AM55 °FMostly cloudy.5 mph72%30.01 "Hg10 mi
5:53 AM55 °FPassing clouds.No wind72%30.02 "Hg10 mi
4:53 AM52 °FPassing clouds.No wind83%30.00 "Hg10 mi
3:53 AM53 °FPassing clouds.5 mph74%30.02 "Hg10 mi
2:53 AM54 °FPassing clouds.3 mph72%29.99 "Hg10 mi
1:53 AM55 °FPassing clouds.3 mph69%30.01 "Hg10 mi
12:53 AM55 °FPassing clouds.No wind69%30.02 "Hg10 mi
11:53 PM
Thu, Apr 23
56 °FPassing clouds.3 mph67%30.03 "Hg10 mi
10:53 PM58 °FPassing clouds.No wind62%30.04 "Hg10 mi
9:53 PM59 °FPartly cloudy.3 mph58%30.05 "Hg10 mi
Weather by CustomWeather, © 2015

See weather overviewHow to use our weather pages